Hourly Data Report for July 02, 2021

PRINCE RUPERT
BRITISH COLUMBIA
Current Station Operator: NAVCAN

54°17'10.000" N
130°26'41.000" W
35.40 m
1066482
71022
YPR

Download Data

Hourly Data (July 2021)
Hourly Data Report for July 2, 2021
TIME
LST
Temp Definition
°C
Dew Point Definition
°C
Rel Hum Definition
%
Precip. Amount Definition
mm

Wind Dir Definition
10's deg

Wind Spd Definition
km/h
Visibility Definition
km
Stn Press Definition
kPa
Hmdx Definition


Wind Chill Definition


Weather Definition


00:00 11.5 10.3 92 0.0 LegendMM 4 16.1 101.72     LegendNANA
01:00 11.4 10.0 91 0.0 27 8 16.1 101.73     LegendNANA
02:00 11.5 10.1 91 0.0 LegendMM 4 16.1 101.72     LegendNANA
03:00 11.4 10.2 92 0.0 26 8 16.1 101.72     LegendNANA
04:00 11.5 10.1 91 0.0   0 16.1 101.73     LegendNANA
05:00 11.6 10.2 91 0.0 28 8 16.1 101.76     LegendNANA
06:00 11.9 10.3 90 0.0 27 9 16.1 101.75     LegendNANA
07:00 12.1 10.2 88 0.0 26 8 16.1 101.77     LegendNANA
08:00 11.9 10.0 88 0.0 29 13 16.1 101.81     LegendNANA
09:00 12.5 10.2 86 0.0 28 13 16.1 101.83     LegendNANA
10:00 12.9 10.2 83 0.0 27 13 16.1 101.85     LegendNANA
11:00 13.0 10.2 83 0.0 30 11 16.1 101.86     LegendNANA
12:00 13.1 10.6 85 0.0 29 13 16.1 101.89     LegendNANA
13:00 13.7 10.8 83 0.0 28 11 16.1 101.91     LegendNANA
14:00 13.4 10.5 83 0.0 28 15 16.1 101.91     LegendNANA
15:00 13.6 10.7 82 0.0 29 15 16.1 101.89     LegendNANA
16:00 14.1 10.5 79 0.0 29 15 16.1 101.87     LegendNANA
17:00 13.3 10.3 82 0.0 29 15 16.1 101.87     LegendNANA
18:00 13.3 10.1 81 0.0 29 17 16.1 101.85     LegendNANA
19:00 12.8 10.2 84 0.0 29 15 16.1 101.84     LegendNANA
20:00 12.2 10.1 87 0.0 29 15 16.1 101.83     LegendNANA
21:00 11.6 10.4 92 0.0 28 9 16.1 101.81     LegendNANA
22:00 11.3 10.2 93 0.0 29 8 16.1 101.82     LegendNANA
23:00 10.9 9.9 94 0.0 29 5 16.1 101.80     LegendNANA

Notes on Data Quality.

Legend

  • E = Estimated
  • M = Missing
  • NA = Not Available*
  • [empty] = Indicates an unobserved value
Date modified: